Wind_Speed
17 17 17 17 17 18 19 18 16 16 15 15 16 16 16 16 16 15 15 15 16 16 16 14 15 16 14 13 7 18 15 23 28 30 31 33 31 26 20 19 16 17 16 15 19 11 11
19 19 18 18 17 17 18 19 19 18 17 16 15 16 17 18 18 17 17 17 16 15 16 18 16 16 17 11 12 15 19 19 26 30 32 34 32 26 22 19 17 15 14 17 9 10 13
18 18 18 17 17 18 18 18 19 20 20 19 18 17 17 18 19 20 20 19 18 17 15 17 19 18 18 8 13 12 17 20 25 29 32 34 32 27 26 19 14 16 15 16 9 14 16
20 19 20 20 20 18 18 17 18 19 21 22 23 22 19 19 19 20 21 21 19 19 17 16 18 20 19 14 13 13 16 20 22 28 31 31 32 27 23 20 15 15 14 11 10 19 19
22 22 21 20 20 20 20 20 20 19 19 20 22 23 23 22 21 18 21 21 21 20 19 18 19 21 14 8 8 14 16 19 19 24 30 35 32 30 26 23 20 17 12 15 18 24 23
24 23 21 20 20 20 19 20 21 22 21 20 20 21 21 25 24 21 21 21 21 22 22 21 22 14 9 6 13 11 17 20 21 19 24 31 34 35 31 28 25 19 17 21 23 26 27
28 28 26 25 22 21 19 19 19 20 22 22 22 20 18 23 23 24 23 22 24 25 23 22 22 24 22 20 17 15 17 25 24 23 24 30 34 40 36 32 23 22 25 22 24 24 26
30 28 28 27 26 25 24 22 21 21 21 22 23 21 18 20 20 22 24 22 24 28 30 23 25 24 21 21 24 23 22 25 29 29 26 27 34 37 34 30 28 23 24 23 19 22 19
31 31 30 29 28 27 25 24 23 23 22 22 23 21 18 19 19 20 22 22 22 26 28 21 14 6 4 6 12 22 30 31 31 30 30 27 23 32 32 34 31 28 24 22 24 25 29
30 30 31 30 30 30 30 29 28 24 22 23 24 23 18 16 17 19 19 19 20 19 16 14 5 4 6 10 9 15 34 32 32 28 26 24 32 26 33 31 34 30 26 23 26 17 23
33 33 33 33 33 32 33 32 30 29 25 22 22 25 20 17 16 18 17 17 16 14 6 3 6 3 8 6 9 4 32 33 27 26 28 19 28 27 33 34 32 25 26 23 26 23 18
36 36 35 35 35 35 35 34 33 31 27 24 22 24 20 20 17 17 14 16 14 5 9 5 9 5 5 8 4 6 29 31 27 25 26 21 18 25 30 34 32 26 23 22 27 19 16
38 37 38 38 38 38 38 38 36 34 30 24 22 23 23 20 18 16 14 14 9 10 7 7 11 14 8 10 6 17 21 36 28 26 27 24 27 22 22 26 35 32 22 10 10 9 10
44 43 42 40 39 39 38 38 37 35 32 28 21 22 23 23 21 18 19 19 17 10 25 12 12 13 11 11 11 19 20 29 34 28 22 26 24 34 25 32 29 38 34 23 15 10 15
48 45 41 38 37 36 36 36 34 34 33 31 25 21 22 24 22 22 24 30 20 26 11 18 18 20 18 11 10 14 23 23 28 37 25 20 28 27 29 28 30 31 37 35 28 14 9
42 41 39 37 35 34 35 35 35 34 31 33 30 23 23 23 23 24 30 42 27 26 17 24 17 11 9 13 6 11 19 19 22 28 29 24 11 30 24 32 29 28 28 25 24 19 19
42 41 38 37 35 35 34 34 34 33 31 30 29 25 22 21 20 26 38 41 35 29 25 28 22 18 17 18 16 12 9 15 14 21 24 27 26 16 22 34 40 30 26 22 22 24 14
40 38 36 35 34 34 34 33 32 32 30 26 27 24 18 21 21 26 35 36 31 23 29 34 24 19 21 23 23 15 13 15 14 17 23 29 21 26 30 13 36 37 34 36 31 20 18
34 33 32 32 32 33 33 32 31 30 31 26 26 25 23 24 28 29 29 28 30 29 29 23 26 27 24 26 20 22 21 19 17 10 14 17 14 21 25 30 34 27 38 40 36 33 33
36 38 39 37 38 36 36 35 32 28 27 24 23 16 12 17 23 25 28 29 29 23 32 31 23 23 24 26 25 14 11 14 12 11 7 14 17 20 26 31 31 27 23 34 38 36 31
45 46 47 44 42 41 37 36 33 28 24 24 20 18 16 12 14 18 23 19 20 24 21 19 26 31 28 23 26 29 28 25 18 13 10 10 18 28 36 34 34 35 30 29 31 48 34
42 42 41 41 38 36 33 28 29 30 28 26 25 25 24 24 22 22 22 18 16 21 25 24 22 22 26 28 27 20 18 25 26 18 20 11 2 12 22 33 34 37 37 30 31 33 36
38 37 37 35 33 29 25 21 21 23 25 21 22 21 22 25 21 21 19 18 16 15 18 20 21 26 29 23 26 29 27 26 25 16 25 18 4 11 13 18 24 34 37 33 33 32 36
31 29 28 26 24 22 23 22 21 19 20 21 20 20 22 26 22 21 21 21 18 19 23 16 23 25 21 21 24 26 30 24 24 24 26 15 13 9 12 8 9 26 30 37 39 41 34
25 24 25 23 21 19 19 21 20 19 19 21 18 18 20 25 23 19 17 21 20 20 23 21 24 21 21 17 16 18 22 26 26 23 22 22 10 6 9 10 15 15 27 26 36 38 40
26 25 24 24 22 19 19 21 20 18 18 20 20 20 20 23 20 15 18 16 17 17 19 21 23 23 22 18 11 12 16 19 13 15 27 24 16 0 11 12 8 12 22 26 29 30 34
23 22 22 22 19 18 18 18 17 16 14 18 16 18 20 24 19 19 20 15 13 17 13 15 21 16 21 19 15 16 16 18 16 20 14 23 25 5 17 16 16 21 22 23 21 21 30
22 22 21 20 20 18 17 16 17 19 18 17 16 19 19 26 18 18 15 18 18 18 14 8 8 13 16 15 15 13 12 17 16 20 24 22 21 19 11 8 11 10 15 18 22 19 27
22 22 19 17 18 17 16 16 15 11 12 14 16 16 17 21 11 6 12 20 18 12 19 11 9 7 8 10 12 16 11 10 14 15 23 22 26 34 10 17 23 15 15 19 22 24 23
Wind_Direction
327 323 318 312 305 300 298 296 293 294 295 296 296 296 297 298 299 302 302 306 304 301 305 312 313 310 300 281 264 247 229 211 211 215 216 222 224 230 234 237 255 262 267 272 268 269 269
333 326 321 318 314 309 303 299 295 290 286 285 288 290 292 295 297 299 300 299 301 304 302 304 309 317 312 302 269 241 234 222 211 210 208 215 221 226 235 237 251 260 268 276 259 236 236
345 337 327 320 315 311 308 303 298 294 289 284 279 277 282 289 294 296 297 296 298 299 303 300 304 307 314 318 277 249 235 226 211 207 203 210 218 220 227 236 238 243 266 277 194 229 230
349 343 335 327 320 314 308 304 298 292 290 288 284 280 277 276 279 287 292 291 292 295 296 302 302 305 311 300 261 243 230 220 212 208 197 201 209 216 217 215 220 238 260 206 212 226 230
344 342 338 332 324 316 311 307 303 296 290 285 282 282 282 279 277 277 281 287 289 289 291 292 294 300 317 322 267 236 225 215 212 205 198 197 204 209 213 202 212 228 228 212 217 224 229
336 336 334 330 326 320 314 308 303 301 299 294 287 282 278 277 278 278 276 280 284 284 286 288 289 284 292 301 297 251 226 212 212 202 203 196 199 208 206 199 208 210 214 216 222 219 225
331 328 327 325 325 322 316 309 302 299 298 297 296 292 282 276 274 276 275 281 284 287 284 282 278 281 280 280 262 248 229 208 213 204 206 202 202 206 209 208 216 226 228 219 230 233 234
326 323 320 318 319 320 320 316 309 303 298 294 292 292 292 282 275 273 275 278 283 290 290 282 285 281 282 267 246 230 220 211 211 213 206 208 215 213 215 211 212 223 227 223 219 220 230
319 317 316 313 311 311 313 314 312 307 299 295 292 291 289 287 283 274 272 279 283 289 301 304 291 225 220 297 273 227 213 213 213 218 215 213 220 212 212 207 204 216 224 221 221 213 222
315 313 311 308 307 309 308 310 311 306 298 294 292 289 285 282 281 276 271 276 285 298 306 303 187 226 271 306 299 228 212 215 216 216 215 224 215 216 213 209 209 217 220 237 222 198 225
317 313 310 308 308 306 306 306 305 305 301 292 285 285 285 277 269 270 270 270 279 297 294 218 189 234 326 301 284 248 204 212 213 209 206 213 215 207 214 212 203 218 222 237 231 211 220
315 313 309 305 304 302 302 300 301 301 299 291 285 280 273 272 268 264 256 254 259 239 247 220 202 200 61 20 283 174 201 208 221 214 218 218 213 217 217 216 211 209 217 230 216 210 226
312 308 305 302 300 299 298 297 297 297 295 290 284 276 274 260 254 252 239 234 215 216 227 224 217 212 259 335 313 203 199 205 200 201 214 220 218 213 212 207 207 210 202 185 199 204 227
311 308 305 302 298 295 292 290 290 290 291 290 283 273 265 260 250 236 225 217 221 229 228 232 220 224 278 306 289 218 208 206 211 207 208 212 224 214 208 209 199 206 207 210 214 213 224
306 305 304 302 298 295 293 291 290 289 288 286 283 273 262 257 245 235 221 216 228 232 228 231 249 264 273 245 253 217 207 215 222 211 206 205 224 218 213 207 201 201 213 221 235 239 239
304 302 302 301 300 298 295 292 290 288 286 286 285 276 262 255 247 233 227 231 238 227 227 241 250 247 247 218 228 193 212 223 217 225 223 221 224 221 219 218 213 217 218 212 221 232 238
305 303 302 300 299 295 292 291 289 286 285 282 282 278 267 255 241 230 231 237 242 235 235 242 247 244 236 242 260 270 236 221 214 226 226 224 223 229 215 219 220 218 216 220 231 229 237
307 307 306 303 299 297 295 293 292 291 287 284 279 279 258 244 238 236 238 241 238 244 238 243 239 231 230 240 255 261 253 216 204 209 212 222 223 229 234 231 228 228 227 225 223 218 230
306 305 305 304 301 298 296 294 293 293 290 284 277 271 260 246 244 242 244 246 242 235 235 238 235 232 237 242 260 262 252 228 209 196 191 203 212 224 241 242 247 232 228 230 234 237 232
299 297 295 294 291 296 294 293 292 293 292 291 288 282 249 248 243 241 240 240 235 234 233 225 225 220 227 237 232 237 222 225 198 193 228 232 232 223 232 236 230 232 235 229 226 232 234
300 301 302 304 304 307 307 305 303 300 298 294 286 277 260 243 245 245 246 242 231 226 223 220 226 230 234 240 244 242 239 234 217 236 256 236 242 241 238 242 232 233 233 233 229 229 233
300 300 300 299 298 297 299 299 296 289 280 276 278 280 273 265 257 253 252 264 256 249 234 218 226 223 230 242 245 247 243 242 250 258 232 225 244 264 252 233 226 223 231 236 241 233 231
303 302 302 299 297 294 293 292 292 288 285 287 281 272 265 263 263 263 259 256 251 260 245 235 227 233 236 246 249 248 239 233 241 235 232 242 250 326 261 232 235 231 228 232 241 228 234
306 307 309 308 300 292 288 282 282 283 284 270 266 270 266 268 266 262 261 261 250 237 253 213 220 234 239 245 248 246 238 230 236 240 233 244 243 277 291 305 229 244 240 236 239 244 248
312 308 308 309 317 310 285 277 274 271 275 288 268 264 262 269 270 267 269 259 253 241 248 242 229 238 232 236 251 243 234 234 237 242 221 214 218 200 313 297 284 260 236 241 232 240 247
300 301 298 294 305 310 290 285 266 264 266 271 261 268 267 264 272 273 258 260 256 235 238 236 228 239 238 245 240 223 216 212 206 215 205 213 203 105 299 285 276 243 226 229 239 225 238
299 297 299 303 302 307 293 300 271 259 255 265 281 264 272 269 253 252 256 259 244 235 236 229 229 229 235 237 225 219 223 218 214 203 192 205 217 277 299 269 270 257 225 217 193 221 222
300 300 299 299 297 296 298 288 277 261 255 257 256 270 266 270 264 255 246 246 226 232 239 227 224 206 216 221 208 211 223 216 212 213 210 192 183 184 277 250 245 226 221 194 215 195 200
298 302 303 296 297 284 302 292 285 250 250 257 261 272 266 267 250 259 229 238 235 225 247 234 207 188 169 192 200 211 210 183 188 192 210 201 209 195 230 278 287 250 193 172 171 170 157
Height
3167 3165 3164 3162 3161 3159 3157 3156 3156 3155 3154 3153 3153 3152 3152 3151 3150 3149 3148 3146 3145 3144 3143 3144 3143 3141 3141 3141 3142 3139 3141 3142 3144 3148 3155 3162 3166 3170 3173 3175 3176 3177 3178 3179 3180 3181 3182
3165 3163 3161 3159 3157 3156 3154 3153 3151 3150 3149 3149 3148 3148 3148 3148 3147 3146 3145 3143 3142 3141 3140 3140 3140 3138 3137 3137 3136 3136 3137 3139 3141 3145 3151 3157 3163 3168 3171 3173 3174 3175 3176 3177 3178 3179 3180
3164 3161 3159 3156 3154 3153 3151 3149 3147 3146 3145 3144 3143 3143 3143 3143 3143 3142 3141 3140 3139 3138 3137 3136 3135 3135 3133 3134 3131 3132 3134 3135 3138 3141 3147 3154 3159 3164 3167 3170 3172 3173 3174 3174 3175 3176 3178
3162 3160 3157 3154 3151 3149 3148 3146 3144 3142 3140 3139 3138 3138 3138 3138 3137 3138 3136 3136 3135 3134 3134 3133 3131 3130 3128 3129 3128 3128 3129 3132 3135 3139 3144 3151 3155 3160 3164 3167 3170 3170 3172 3172 3174 3175 3176
3158 3156 3153 3151 3149 3146 3144 3141 3140 3138 3136 3135 3133 3133 3132 3131 3132 3132 3131 3131 3131 3130 3129 3129 3128 3126 3125 3125 3125 3125 3126 3129 3132 3135 3139 3144 3150 3155 3160 3163 3167 3167 3169 3170 3172 3172 3174
3156 3154 3151 3148 3145 3143 3141 3139 3137 3134 3132 3130 3129 3128 3127 3125 3125 3126 3125 3125 3125 3125 3125 3124 3122 3124 3123 3123 3122 3122 3123 3126 3130 3132 3136 3140 3144 3148 3153 3157 3160 3164 3166 3168 3169 3170 3172
3150 3148 3145 3143 3140 3138 3136 3134 3131 3130 3128 3126 3125 3124 3122 3120 3120 3120 3120 3120 3122 3120 3118 3119 3118 3115 3116 3118 3118 3119 3120 3122 3125 3129 3132 3136 3139 3137 3147 3154 3160 3163 3164 3165 3167 3169 3172
3145 3142 3140 3137 3134 3132 3130 3128 3126 3124 3122 3121 3119 3119 3119 3116 3116 3114 3114 3114 3114 3111 3109 3112 3109 3107 3106 3107 3107 3111 3116 3118 3120 3124 3128 3133 3131 3139 3147 3153 3156 3159 3160 3163 3165 3167 3171
3141 3137 3134 3131 3127 3125 3122 3121 3120 3119 3117 3114 3112 3113 3113 3111 3112 3110 3109 3109 3108 3104 3103 3103 3102 3101 3102 3102 3100 3104 3107 3110 3115 3119 3123 3126 3132 3137 3142 3146 3150 3154 3156 3160 3163 3165 3167
3137 3134 3130 3127 3124 3121 3117 3114 3112 3111 3110 3109 3106 3105 3107 3106 3108 3104 3105 3106 3105 3103 3101 3098 3096 3097 3098 3096 3095 3094 3099 3106 3110 3115 3120 3123 3129 3132 3136 3141 3146 3149 3152 3156 3159 3163 3165
3131 3127 3123 3120 3117 3114 3111 3109 3106 3105 3103 3101 3100 3098 3100 3100 3100 3099 3102 3102 3102 3103 3102 3093 3093 3093 3092 3093 3092 3090 3095 3099 3104 3109 3116 3119 3122 3127 3130 3135 3142 3147 3151 3153 3155 3159 3162
3124 3120 3116 3113 3109 3105 3103 3100 3097 3096 3096 3094 3093 3091 3093 3093 3094 3094 3095 3097 3099 3105 3095 3087 3088 3089 3090 3089 3088 3088 3091 3097 3102 3107 3111 3116 3121 3124 3126 3133 3139 3145 3148 3150 3152 3157 3156
3116 3112 3108 3104 3101 3097 3095 3092 3089 3088 3087 3086 3086 3085 3084 3086 3089 3089 3090 3093 3097 3093 3087 3085 3083 3085 3086 3086 3086 3085 3086 3089 3093 3100 3104 3111 3113 3117 3122 3128 3134 3138 3143 3147 3150 3150 3147
3107 3103 3098 3095 3092 3089 3086 3082 3080 3078 3078 3078 3077 3077 3076 3078 3080 3082 3085 3088 3084 3075 3078 3079 3081 3082 3082 3082 3082 3082 3083 3084 3088 3092 3098 3103 3108 3108 3114 3119 3123 3128 3135 3134 3139 3140 3143
3095 3091 3087 3084 3081 3079 3076 3074 3071 3070 3070 3067 3068 3070 3070 3069 3072 3075 3077 3073 3066 3070 3073 3074 3076 3077 3077 3078 3078 3077 3078 3079 3081 3085 3092 3096 3099 3105 3109 3115 3120 3122 3122 3133 3134 3135 3136
3085 3081 3077 3075 3072 3070 3068 3065 3064 3062 3062 3059 3060 3061 3061 3061 3062 3066 3065 3058 3059 3064 3068 3069 3072 3073 3073 3073 3076 3074 3075 3075 3077 3081 3087 3091 3095 3096 3104 3111 3113 3114 3121 3125 3125 3125 3128
3074 3071 3068 3066 3063 3060 3057 3055 3053 3052 3053 3051 3050 3050 3051 3052 3053 3053 3051 3048 3052 3057 3062 3064 3065 3067 3068 3070 3071 3071 3070 3071 3072 3076 3082 3086 3090 3093 3094 3094 3101 3106 3109 3113 3116 3117 3116
3066 3063 3060 3057 3055 3051 3049 3047 3045 3043 3043 3043 3041 3042 3043 3042 3046 3040 3039 3042 3046 3049 3053 3056 3057 3059 3062 3065 3065 3066 3066 3069 3069 3072 3074 3079 3083 3085 3086 3090 3094 3098 3100 3105 3107 3110 3113
3057 3054 3051 3048 3045 3042 3040 3037 3036 3035 3031 3033 3032 3030 3032 3034 3033 3032 3032 3034 3036 3040 3045 3046 3049 3051 3055 3057 3060 3059 3061 3064 3067 3068 3070 3073 3075 3079 3082 3087 3086 3087 3091 3097 3102 3105 3102
3049 3045 3041 3037 3035 3033 3030 3028 3027 3026 3025 3025 3026 3023 3023 3024 3023 3022 3022 3025 3028 3030 3034 3038 3041 3044 3047 3048 3052 3054 3057 3059 3062 3065 3066 3066 3068 3069 3071 3074 3081 3082 3084 3087 3092 3094 3099
3040 3036 3032 3029 3028 3025 3023 3022 3021 3021 3021 3020 3019 3017 3016 3016 3016 3015 3016 3017 3020 3022 3025 3029 3032 3036 3040 3041 3045 3047 3053 3054 3055 3058 3062 3060 3059 3061 3062 3065 3069 3074 3078 3080 3080 3085 3088
3030 3027 3023 3020 3017 3014 3013 3013 3011 3010 3012 3014 3014 3012 3011 3010 3011 3009 3011 3012 3014 3014 3017 3022 3026 3031 3031 3031 3037 3042 3047 3049 3049 3053 3055 3052 3052 3053 3052 3056 3060 3061 3068 3073 3075 3080 3082
3021 3017 3014 3011 3009 3007 3007 3005 3005 3003 3002 3002 3004 3003 3002 3002 3004 3003 3004 3006 3008 3008 3012 3015 3018 3020 3021 3027 3029 3033 3036 3039 3042 3046 3049 3048 3047 3050 3048 3050 3054 3055 3058 3065 3068 3069 3074
3011 3009 3006 3003 3001 2999 3000 2999 2998 2998 2995 2995 2996 2997 2997 2993 2997 2997 2997 2999 3001 3002 3004 3010 3011 3012 3017 3020 3021 3025 3027 3031 3034 3037 3042 3043 3043 3047 3048 3046 3047 3045 3051 3056 3059 3062 3066
3005 3003 3000 2997 2995 2993 2992 2992 2991 2991 2991 2989 2988 2989 2988 2987 2990 2991 2992 2992 2994 2996 2998 3003 3005 3007 3008 3014 3016 3019 3021 3024 3024 3030 3034 3039 3036 3040 3047 3045 3042 3039 3041 3046 3048 3053 3056
2998 2996 2993 2991 2990 2988 2986 2985 2984 2985 2985 2983 2983 2983 2982 2981 2983 2985 2984 2987 2988 2990 2993 2994 2997 2998 3002 3006 3010 3011 3012 3015 3019 3022 3027 3031 3032 3038 3047 3048 3037 3032 3034 3037 3042 3043 3046
2992 2989 2987 2986 2984 2982 2981 2979 2979 2979 2979 2978 2980 2978 2977 2973 2976 2980 2980 2983 2983 2984 2986 2987 2988 2994 2997 3000 3005 3007 3008 3009 3012 3015 3020 3024 3027 3029 3043 3043 3035 3029 3029 3030 3035 3040 3039
2986 2983 2981 2980 2978 2978 2976 2975 2974 2973 2973 2973 2974 2973 2973 2969 2971 2972 2975 2974 2977 2980 2981 2984 2987 2989 2992 2996 2998 3001 3002 3002 3006 3009 3013 3017 3021 3029 3045 3037 3031 3024 3024 3030 3029 3031 3035
2979 2978 2976 2975 2973 2972 2971 2970 2968 2968 2969 2969 2970 2969 2968 2967 2967 2967 2968 2971 2974 2978 2978 2980 2983 2984 2987 2991 2992 2995 2997 2998 3000 3005 3007 3011 3014 3019 3035 3030 3024 3020 3023 3025 3027 3029 3032